This demonstration page uses our WeatherBlox Daily Observations layout. Learn more.

Left ArrowRight Arrow

Hourly Observations for April 29, 2018

Temp ( °F °C ) Dew Point ( °F °C ) Humidity (%) Winds ( mph kmh ) Pressure ( in mb ) Visibility ( mi km ) Precip ( " mm )
12:40 am 00:40 Mostly Cloudy 66 18.9 48 8.9 52 52 N 16 26 29.88 1012 10 16 0.00 0.00
12:59 am 00:59 Cloudy 65 18.3 48 8.9 54 54 N 15 24 29.87 1012 10 16 0.00 0.00
1:59 am 01:59 Partly Cloudy 62 16.7 48 8.9 60 60 N 29 46 29.89 1012 10 16 0.00 0.00
2:59 am 02:59 Mostly Clear 59 15 50 10 72 72 N 20 31 29.91 1013 10 16 0.00 0.00
3:59 am 03:59 Mostly Cloudy 58 14.4 43 6.1 58 58 N 16 26 29.94 1014 10 16 0.00 0.00
4:59 am 04:59 Mostly Cloudy 57 13.9 41 5 55 55 N 16 26 29.95 1014 10 16 0.00 0.00
5:59 am 05:59 Mostly Cloudy 54 12.2 38 3.3 55 55 NNW 22 35 29.98 1015 10 16 0.00 0.00
6:59 am 06:59 Mostly Cloudy 53 11.7 37 2.8 55 55 NNW 16 26 30.02 1017 10 16 0.00 0.00
7:59 am 07:59 Mostly Cloudy 53 11.7 34 1.1 48 48 NNW 16 26 30.05 1018 10 16 0.00 0.00
8:59 am 08:59 Mostly Cloudy 53 11.7 33 0.6 47 47 NNW 18 30 30.06 1018 10 16 0.00 0.00
9:59 am 09:59 Partly Cloudy 55 12.8 33 0.6 44 44 NNW 14 22 30.09 1019 10 16 0.00 0.00
10:59 am 10:59 Mostly Sunny 56 13.3 33 0.6 42 42 N 9 15 30.10 1019 10 16 0.00 0.00
11:59 am 11:59 Mostly Sunny 59 15 33 0.6 38 38 NNW 10 17 30.10 1019 10 16 0.00 0.00
12:59 pm 12:59 Mostly Sunny 61 16.1 33 0.6 35 35 WNW 16 26 30.09 1019 10 16 0.00 0.00
1:59 pm 13:59 Mostly Sunny 60 15.6 31 -0.6 33 33 W 17 28 30.09 1019 10 16 0.00 0.00
2:59 pm 14:59 Mostly Sunny 62 16.7 30 -1.1 30 30 NW 18 30 30.08 1019 10 16 0.00 0.00
3:59 pm 15:59 Mostly Sunny 64 17.8 30 -1.1 28 28 WNW 14 22 30.08 1019 10 16 0.00 0.00
4:59 pm 16:59 Mostly Sunny 63 17.2 28 -2.2 27 27 WNW 15 24 30.08 1019 10 16 0.00 0.00
5:59 pm 17:59 Mostly Sunny 63 17.2 28 -2.2 27 27 NW 14 22 30.09 1019 10 16 0.00 0.00
6:13 pm 18:13 Mostly Sunny 59 15 41 5 51 51 ENE 9 15 30.09 1019 10 16 0.00 0.00
6:59 pm 18:59 Mostly Sunny 57 13.9 42 5.6 58 58 E 8 13 30.10 1019 10 16 0.00 0.00
7:59 pm 19:59 Clear 57 13.9 36 2.2 45 45 NNE 9 15 30.12 1020 10 16 0.00 0.00
8:59 pm 20:59 Clear 56 13.3 37 2.8 49 49 N 7 11 30.14 1021 10 16 0.00 0.00
9:59 pm 21:59 Clear 55 12.8 36 2.2 49 49 N 9 15 30.16 1022 10 16 0.00 0.00
10:59 pm 22:59 Clear 55 12.8 33 0.6 44 44 NNW 10 17 30.18 1022 10 16 0.00 0.00
11:59 pm 23:59 Clear 53 11.7 33 0.6 47 47 N 8 13 30.20 1023 10 16 0.00 0.00

Powered by AerisWeather